Date String (YYYY-MM-DD hh:mm:ss) UTC,Instrument flags,absolute air pressure of the measurement (hPa),sample flow rate (lpm),inlet stack bypass flow (lpm),air temperature of the measurement (°C),ambient temperature measured by the external sensor (°C),aerosol sample conditioner tube jacket temperature (°C),OPC LED temperature (°C),internal box temperature (°C),relative humidity of the measurement (%),span deviation,mass concentration of particles derived from Lorenz-Mie calculation of OPC scattering (μg/m³),mass concentration of particles derived from Lorenz-Mie calculation of OPC scattering (μg/m³),mass concentration of particles derived from Lorenz-Mie calculation of OPC scattering (μg/m³)
DateTimeUTC,F1_M11,P_M11,Q1_M11,Q2_M11,T1_M11,T2_M11,T3_M11,T4_M11,T5_M11,U1_M11,ZSPAN_M11,X2_M11,X0_M11,X1_M11
2023-06-05 02:00:00,SystemResetWarning,0835.0,5.00,000.00,030.0,028.4,000.0,038.4,031.5,33.0,0000.0,0003.29,0004.40,0003.04
2023-06-05 02:01:00,SystemResetWarning,0835.0,4.99,000.00,030.0,028.4,000.0,038.4,031.5,33.2,0000.0,0003.27,0004.22,0003.01
2023-06-05 02:02:00,SystemResetWarning,0835.1,4.99,000.00,030.0,028.4,000.0,038.4,031.5,33.2,0000.0,0003.25,0004.08,0003.00
2023-06-05 02:03:00,SystemResetWarning,0835.1,4.99,000.00,030.0,028.4,000.0,038.4,031.6,33.2,0000.0,0003.25,0004.13,0002.99
2023-06-05 02:04:00,SystemResetWarning,0835.1,5.00,000.00,030.0,028.4,000.0,038.4,031.5,33.2,0000.0,0003.25,0004.18,0002.99
2023-06-05 02:05:00,SystemResetWarning,0835.0,5.00,000.00,030.0,028.4,000.0,038.4,031.5,33.3,0000.0,0003.24,0004.84,0002.97
2023-06-05 02:06:00,SystemResetWarning,0835.0,5.02,000.00,030.0,028.4,000.0,038.4,031.6,33.3,0000.0,0003.23,0004.81,0002.96
2023-06-05 02:07:00,SystemResetWarning,0835.0,5.00,000.00,030.0,028.4,000.0,038.4,031.6,33.2,0000.0,0003.26,0004.98,0002.97
2023-06-05 02:08:00,SystemResetWarning,0834.8,5.00,000.00,030.0,028.4,000.0,038.4,031.5,33.2,0000.0,0003.27,0005.01,0002.97
2023-06-05 02:09:00,SystemResetWarning,0834.7,5.00,000.00,030.0,028.4,000.0,038.4,031.5,33.2,0000.0,0003.26,0005.00,0002.96
2023-06-05 02:10:00,SystemResetWarning,0834.6,5.00,000.00,030.0,028.4,000.0,038.4,031.5,33.3,0000.0,0003.26,0005.04,0002.95
2023-06-05 02:11:00,SystemResetWarning,0834.5,5.00,000.00,030.0,028.4,000.0,038.4,031.5,33.3,0000.0,0003.28,0005.44,0002.95
2023-06-05 02:12:00,SystemResetWarning,0834.8,5.00,000.00,030.0,028.4,000.0,038.4,031.5,33.3,0000.0,0003.30,0005.52,0002.96
2023-06-05 02:13:00,SystemResetWarning,0834.6,5.01,000.00,030.0,028.4,000.0,038.4,031.6,33.3,0000.0,0003.31,0005.63,0002.97
2023-06-05 02:14:00,SystemResetWarning,0834.6,5.01,000.00,030.0,028.4,000.0,038.4,031.6,33.3,0000.0,0003.31,0005.84,0002.97
2023-06-05 02:15:00,SystemResetWarning,0834.7,5.00,000.00,030.0,028.4,000.0,038.4,031.6,33.3,0000.0,0003.31,0006.64,0002.96
2023-06-05 02:16:00,SystemResetWarning,0834.7,5.00,000.00,030.0,028.5,000.0,038.4,031.6,33.3,0000.0,0003.31,0006.06,0002.96
2023-06-05 02:17:00,SystemResetWarning,0834.8,5.00,000.00,030.0,028.5,000.0,038.4,031.6,33.3,0000.0,0003.32,0005.99,0002.95
2023-06-05 02:18:00,SystemResetWarning,0835.1,4.99,000.00,030.0,028.5,000.0,038.4,031.6,33.3,0000.0,0003.32,0005.88,0002.96
2023-06-05 02:19:00,SystemResetWarning,0835.1,5.00,000.00,030.0,028.5,000.0,038.4,031.6,33.3,0000.0,0003.29,0005.74,0002.97
2023-06-05 02:20:00,SystemResetWarning,0834.8,5.01,000.00,030.0,028.5,000.0,038.4,031.6,33.3,0000.0,0003.31,0005.77,0002.99
2023-06-05 02:21:00,SystemResetWarning,0834.9,5.00,000.00,030.0,028.6,000.0,038.4,031.6,33.2,0000.0,0003.32,0005.84,0003.02
2023-06-05 02:22:00,SystemResetWarning,0834.7,4.99,000.00,030.0,028.6,000.0,038.4,031.6,33.2,0000.0,0003.34,0005.82,0003.04
2023-06-05 02:23:00,SystemResetWarning,0834.6,4.99,000.00,030.0,028.5,000.0,038.4,031.6,33.2,0000.0,0003.34,0005.86,0003.05
2023-06-05 02:24:00,SystemResetWarning,0834.9,5.00,000.00,030.0,028.5,000.0,038.4,031.6,33.2,0000.0,0003.35,0006.92,0003.05
2023-06-05 02:25:00,SystemResetWarning,0835.2,5.00,000.00,030.0,028.5,000.0,038.4,031.6,33.2,0000.0,0003.33,0006.82,0003.06
2023-06-05 02:26:00,SystemResetWarning,0835.2,5.01,000.00,030.0,028.5,000.0,038.4,031.6,33.2,0000.0,0003.33,0005.83,0003.07
2023-06-05 02:27:00,SystemResetWarning,0835.0,5.01,000.00,030.0,028.5,000.0,038.4,031.6,33.2,0000.0,0003.37,0005.91,0003.10
2023-06-05 02:28:00,SystemResetWarning,0834.9,5.00,000.00,030.0,028.5,000.0,038.4,031.6,33.3,0000.0,0003.35,0005.85,0003.11
2023-06-05 02:29:00,SystemResetWarning,0834.8,5.00,000.00,030.0,028.5,000.0,038.4,031.6,33.3,0000.0,0003.37,0006.00,0003.11
2023-06-05 02:30:00,SystemResetWarning,0834.7,5.00,000.00,030.0,028.5,000.0,038.4,031.6,33.2,0000.0,0003.38,0006.03,0003.13
2023-06-05 02:31:00,SystemResetWarning,0834.8,5.00,000.00,030.0,028.5,000.0,038.4,031.6,33.2,0000.0,0003.39,0006.05,0003.14
2023-06-05 02:32:00,SystemResetWarning,0834.9,5.00,000.00,030.0,028.5,000.0,038.4,031.6,33.2,0000.0,0003.39,0006.05,0003.14
2023-06-05 02:33:00,SystemResetWarning,0835.2,5.00,000.00,030.0,028.5,000.0,038.4,031.6,33.2,0000.0,0003.39,0006.05,0003.15
2023-06-05 02:34:00,SystemResetWarning,0835.3,4.99,000.00,030.0,028.5,000.0,038.4,031.6,33.2,0000.0,0003.36,0006.08,0003.16
2023-06-05 02:35:00,SystemResetWarning,0835.3,5.01,000.00,030.0,028.5,000.0,038.4,031.7,33.2,0000.0,0003.40,0005.69,0003.17
2023-06-05 02:36:00,SystemResetWarning,0835.3,5.01,000.00,030.0,028.6,000.0,038.5,031.7,33.2,0000.0,0003.42,0005.85,0003.18
2023-06-05 02:37:00,SystemResetWarning,0835.4,5.01,000.00,030.0,028.6,000.0,038.5,031.7,33.2,0000.0,0003.43,0006.21,0003.19
2023-06-05 02:38:00,SystemResetWarning,0835.4,5.00,000.00,030.0,028.6,000.0,038.5,031.7,33.1,0000.0,0003.42,0006.12,0003.19
2023-06-05 02:39:00,SystemResetWarning,0835.3,5.00,000.00,030.1,028.6,000.0,038.5,031.7,33.2,0000.0,0003.41,0006.07,0003.19
2023-06-05 02:40:00,SystemResetWarning,0835.3,4.99,000.00,030.1,028.4,000.0,038.4,031.7,33.1,0000.0,0003.42,0006.07,0003.19
2023-06-05 02:41:00,SystemResetWarning,0835.4,5.00,000.00,030.1,026.9,000.0,038.4,031.5,33.1,0000.0,0003.43,0006.08,0003.20
2023-06-05 02:42:00,SystemResetWarning,0835.4,5.00,000.00,030.0,025.8,000.0,038.3,031.3,33.2,0000.0,0003.43,0006.10,0003.19
2023-06-05 02:43:00,SystemResetWarning,0835.4,5.01,000.00,029.9,025.7,000.0,038.2,031.1,33.4,0000.0,0003.45,0006.17,0003.20
2023-06-05 02:44:00,SystemResetWarning,0835.3,5.01,000.00,029.8,025.9,000.0,038.2,031.0,33.6,0000.0,0003.43,0006.12,0003.19
2023-06-05 02:45:00,SystemResetWarning,0835.0,5.00,000.00,029.7,026.3,000.0,038.2,031.1,33.8,0000.0,0003.47,0005.88,0003.20
2023-06-05 02:46:00,SystemResetWarning,0834.9,5.00,000.00,029.7,026.6,000.0,038.2,031.1,33.8,0000.0,0003.47,0005.78,0003.20
2023-06-05 02:47:00,SystemResetWarning,0835.0,5.00,000.00,029.7,026.9,000.0,038.2,031.2,33.8,0000.0,0003.46,0005.42,0003.21
2023-06-05 02:48:00,SystemResetWarning,0835.0,5.00,000.00,029.7,027.2,000.0,038.2,031.2,33.8,0000.0,0003.45,0004.77,0003.21
2023-06-05 02:49:00,SystemResetWarning,0835.0,5.00,000.00,029.7,027.4,000.0,038.2,031.2,33.8,0000.0,0003.47,0004.89,0003.22
2023-06-05 02:50:00,SystemResetWarning,0835.0,5.01,000.00,029.7,027.6,000.0,038.2,031.3,33.7,0000.0,0003.50,0004.97,0003.23
2023-06-05 02:51:00,SystemResetWarning,0835.0,5.00,000.00,029.7,027.8,000.0,038.2,031.3,33.7,0001.6,0003.52,0005.23,0003.24
2023-06-05 02:52:00,SystemResetWarning,0835.0,4.99,000.00,029.7,027.9,000.0,038.1,031.3,33.7,0001.9,0003.53,0005.35,0003.26
2023-06-05 02:53:00,SystemResetWarning,0835.0,5.00,000.00,029.7,028.0,000.0,038.1,031.3,33.7,0001.1,0003.58,0005.68,0003.29
2023-06-05 02:54:00,SystemResetWarning,0835.0,5.00,000.00,029.8,028.1,000.0,038.1,031.3,33.7,0000.0,0003.61,0005.70,0003.31
2023-06-05 02:55:00,SystemResetWarning,0835.0,5.00,000.00,029.8,028.1,000.0,038.1,031.4,33.7,0000.0,0003.65,0005.76,0003.35
2023-06-05 02:56:00,SystemResetWarning,0835.0,5.00,000.00,029.8,028.2,000.0,038.1,031.4,33.6,0000.0,0003.67,0005.80,0003.37
2023-06-05 02:57:00,SystemResetWarning,0835.0,4.99,000.00,029.8,028.2,000.0,038.2,031.4,33.6,0000.0,0003.70,0005.87,0003.41
2023-06-05 02:58:00,SystemResetWarning,0835.0,4.99,000.00,029.8,028.3,000.0,038.2,031.4,33.6,0000.0,0003.71,0005.82,0003.45
2023-06-05 02:59:00,SystemResetWarning,0835.0,4.99,000.00,029.8,028.3,000.0,038.2,031.4,33.6,0000.0,0003.75,0005.85,0003.48
